VLG5AW LEMH-LFPO

Flight info

Callsign VLG5AW
Flight time 1h 36m
Altitude 36000
Route MEROS DCT LAPIT DCT CHELY DCT LUMAS DCT SOFFY DCT MRM DCT MTL/N0440F340 DCT ETREK DCT MADOT DCT MOPEM DCT PIBAT
Aircraft A320/M-SDE3FGHIRWY/LB1

Departure

Time 2026-04-25 13:46
Airport Menorca Airport (LEMH)

Arrival

Time 2026-04-25 15:23
Airport Paris-Orly Airport (LFPO)
Time Latitude Longitude Altitude Speed Heading
2026-04-25 13:30 39.86426 4.22388 291 ft 0 kts 99°
2026-04-25 13:39 39.86426 4.22384 286 ft 1 kts 99°
2026-04-25 13:40 39.86429 4.22361 287 ft 3 kts 99°
2026-04-25 13:40 39.86432 4.22336 290 ft 3 kts 91°
2026-04-25 13:40 39.86430 4.22314 288 ft 3 kts 43°
2026-04-25 13:40 39.86422 4.22308 298 ft 1 kts
2026-04-25 13:41 39.86407 4.22305 288 ft 2 kts
2026-04-25 13:41 39.86404 4.22304 288 ft 0 kts
2026-04-25 13:42 39.86406 4.22304 288 ft 1 kts
2026-04-25 13:43 39.86438 4.22311 288 ft 9 kts
2026-04-25 13:43 39.86521 4.22317 289 ft 14 kts 334°
2026-04-25 13:43 39.86545 4.22208 293 ft 12 kts 279°
2026-04-25 13:43 39.86601 4.22172 295 ft 12 kts
2026-04-25 13:44 39.86702 4.22194 299 ft 18 kts
2026-04-25 13:44 39.86843 4.22223 302 ft 22 kts
2026-04-25 13:44 39.86995 4.22254 301 ft 22 kts
2026-04-25 13:44 39.87146 4.22286 306 ft 22 kts
2026-04-25 13:45 39.87294 4.22317 310 ft 20 kts 12°
2026-04-25 13:45 39.87389 4.22279 313 ft 15 kts 287°
2026-04-25 13:45 39.87374 4.22133 311 ft 18 kts 242°
2026-04-25 13:45 39.87258 4.22072 308 ft 22 kts 190°
2026-04-25 13:46 39.86932 4.22004 303 ft 80 kts 188°
2026-04-25 13:46 39.86185 4.21850 304 ft 132 kts 189°
2026-04-25 13:46 39.85138 4.21636 395 ft 165 kts 188°
2026-04-25 13:46 39.84014 4.21384 1024 ft 166 kts 188°
2026-04-25 13:47 39.82872 4.21136 1746 ft 168 kts 187°
2026-04-25 13:47 39.81657 4.20885 2113 ft 187 kts 187°
2026-04-25 13:47 39.80301 4.20609 2388 ft 208 kts 188°
2026-04-25 13:47 39.78785 4.20291 2710 ft 233 kts 188°
2026-04-25 13:48 39.77104 4.19988 3196 ft 253 kts 180°
2026-04-25 13:48 39.75413 4.20617 3902 ft 259 kts 142°
2026-04-25 13:48 39.74324 4.22448 4742 ft 261 kts 107°
2026-04-25 13:48 39.74253 4.24782 5537 ft 264 kts 73°
2026-04-25 13:49 39.75048 4.26961 6360 ft 269 kts 58°
2026-04-25 13:49 39.76096 4.28998 7184 ft 272 kts 54°
2026-04-25 13:49 39.77248 4.30979 7972 ft 277 kts 51°
2026-04-25 13:49 39.78563 4.32835 8745 ft 282 kts 43°
2026-04-25 13:50 39.80102 4.34440 9546 ft 286 kts 34°
2026-04-25 13:50 39.81863 4.35674 10281 ft 290 kts 22°
2026-04-25 13:50 39.83795 4.36470 11034 ft 292 kts 12°
2026-04-25 13:50 39.85853 4.36836 11458 ft 309 kts
2026-04-25 13:51 39.87313 4.36800 11558 ft 325 kts 356°
2026-04-25 13:51 39.89597 4.36233 11871 ft 342 kts 344°
2026-04-25 13:51 39.92499 4.34536 12678 ft 350 kts 329°
2026-04-25 13:51 39.94437 4.32592 13349 ft 355 kts 317°
2026-04-25 13:52 39.96044 4.30130 13997 ft 360 kts 306°
2026-04-25 13:52 39.97004 4.28305 14365 ft 362 kts 309°
2026-04-25 13:52 39.98776 4.26040 14895 ft 362 kts 327°
2026-04-25 13:52 40.01033 4.24602 15431 ft 363 kts 346°
2026-04-25 13:53 40.03535 4.24244 15945 ft 364 kts
2026-04-25 13:53 40.06041 4.24815 16462 ft 367 kts 13°
2026-04-25 13:53 40.08554 4.25502 17003 ft 371 kts 13°
2026-04-25 13:53 40.11096 4.26193 17524 ft 375 kts 13°
2026-04-25 13:54 40.13672 4.26888 18046 ft 380 kts 13°
2026-04-25 13:54 40.16278 4.27589 18545 ft 384 kts 12°
2026-04-25 13:54 40.18908 4.28293 19019 ft 387 kts 12°
2026-04-25 13:54 40.21559 4.28999 19533 ft 390 kts 12°
2026-04-25 13:55 40.24224 4.29709 20056 ft 392 kts 12°
2026-04-25 13:55 40.26906 4.30426 20578 ft 394 kts 12°
2026-04-25 13:55 40.29603 4.31152 21092 ft 396 kts 12°
2026-04-25 13:55 40.32307 4.31881 21591 ft 398 kts 12°
2026-04-25 13:56 40.35027 4.32614 22085 ft 400 kts 12°
2026-04-25 13:56 40.37761 4.33351 22534 ft 402 kts 12°
2026-04-25 13:56 40.40510 4.34092 22997 ft 404 kts 12°
2026-04-25 13:56 40.43275 4.34837 23449 ft 407 kts 12°
2026-04-25 13:57 40.46060 4.35593 23873 ft 409 kts 12°
2026-04-25 13:57 40.47915 4.36097 24126 ft 411 kts 12°
2026-04-25 13:57 40.51668 4.37102 24640 ft 413 kts 11°
2026-04-25 13:57 40.54468 4.37798 25021 ft 415 kts 10°
2026-04-25 13:58 40.57317 4.38471 25399 ft 417 kts 10°
2026-04-25 13:58 40.60177 4.39132 25772 ft 418 kts 10°
2026-04-25 13:58 40.63052 4.39794 26140 ft 420 kts 10°
2026-04-25 13:58 40.65938 4.40468 26496 ft 422 kts 10°
2026-04-25 13:59 40.68835 4.41154 26863 ft 424 kts 10°
2026-04-25 13:59 40.71746 4.41851 27221 ft 426 kts 10°
2026-04-25 13:59 40.74664 4.42554 27586 ft 428 kts 10°
2026-04-25 13:59 40.77607 4.43265 27954 ft 430 kts 10°
2026-04-25 14:00 40.79553 4.43735 28195 ft 431 kts 10°
2026-04-25 14:00 40.83518 4.44692 28679 ft 433 kts 10°
2026-04-25 14:00 40.86491 4.45407 29026 ft 436 kts 10°
2026-04-25 14:00 40.89479 4.46123 29384 ft 437 kts 10°
2026-04-25 14:01 40.92470 4.46841 29883 ft 435 kts 10°
2026-04-25 14:01 40.95441 4.47559 30359 ft 434 kts 10°
2026-04-25 14:01 40.98415 4.48283 30773 ft 433 kts 10°
2026-04-25 14:01 41.01372 4.49005 31171 ft 432 kts 10°
2026-04-25 14:02 41.04331 4.49729 31567 ft 432 kts 10°
2026-04-25 14:02 41.07286 4.50453 31946 ft 432 kts 10°
2026-04-25 14:02 41.10241 4.51178 32333 ft 432 kts 10°
2026-04-25 14:02 41.12202 4.51658 32597 ft 432 kts 10°
2026-04-25 14:03 41.16150 4.52616 33140 ft 431 kts 10°
2026-04-25 14:03 41.19059 4.53321 33555 ft 430 kts 10°
2026-04-25 14:03 41.22008 4.54037 33960 ft 430 kts 11°
2026-04-25 14:03 41.24945 4.54753 34336 ft 429 kts 10°
2026-04-25 14:04 41.27880 4.55471 34638 ft 429 kts 10°
2026-04-25 14:04 41.30825 4.56189 34916 ft 430 kts 10°
2026-04-25 14:04 41.33768 4.56907 35202 ft 430 kts 10°
2026-04-25 14:04 41.36709 4.57627 35487 ft 430 kts 10°
2026-04-25 14:05 41.39650 4.58351 35807 ft 429 kts 10°
2026-04-25 14:05 41.42587 4.59074 36059 ft 430 kts
2026-04-25 14:05 41.45537 4.59801 36139 ft 433 kts
2026-04-25 14:06 41.51548 4.61283 36144 ft 443 kts
2026-04-25 14:06 41.57623 4.62776 36144 ft 444 kts 10°
2026-04-25 14:07 41.63711 4.64273 36141 ft 444 kts
2026-04-25 14:07 41.69786 4.65779 36138 ft 444 kts 10°
2026-04-25 14:08 41.75814 4.67633 36138 ft 445 kts 15°
2026-04-25 14:08 41.81760 4.69970 36140 ft 446 kts 15°
2026-04-25 14:09 41.87673 4.72286 36141 ft 446 kts 15°
2026-04-25 14:09 41.93639 4.74631 36145 ft 446 kts 15°
2026-04-25 14:10 41.99603 4.76980 36149 ft 447 kts 15°
2026-04-25 14:10 42.05564 4.79332 36145 ft 447 kts 15°
2026-04-25 14:11 42.11534 4.81697 36142 ft 447 kts 14°
2026-04-25 14:11 42.17497 4.84054 36138 ft 447 kts 15°
2026-04-25 14:12 42.23461 4.86412 36137 ft 447 kts 15°
2026-04-25 14:12 42.29422 4.88778 36127 ft 447 kts 15°
2026-04-25 14:13 42.35390 4.91153 36126 ft 447 kts 15°
2026-04-25 14:13 42.41358 4.93537 36127 ft 447 kts 15°
2026-04-25 14:14 42.47333 4.95928 36129 ft 447 kts 15°
2026-04-25 14:14 42.53298 4.98321 36134 ft 447 kts 15°
2026-04-25 14:15 42.59269 5.00729 36126 ft 447 kts 15°
2026-04-25 14:15 42.65241 5.03132 36126 ft 448 kts 15°
2026-04-25 14:16 42.71220 5.05533 36122 ft 448 kts 14°
2026-04-25 14:16 42.77199 5.07953 36124 ft 448 kts 15°
2026-04-25 14:17 42.83182 5.10383 36127 ft 448 kts 15°
2026-04-25 14:17 42.89159 5.12805 36126 ft 448 kts 15°
2026-04-25 14:18 42.95134 5.15229 36122 ft 448 kts 15°
2026-04-25 14:18 43.01104 5.17666 36120 ft 448 kts 15°
2026-04-25 14:19 43.07082 5.20100 36114 ft 448 kts 15°
2026-04-25 14:19 43.13050 5.22532 36110 ft 448 kts 15°
2026-04-25 14:20 43.19022 5.24966 36107 ft 448 kts 15°
2026-04-25 14:20 43.24998 5.27406 36103 ft 448 kts 15°
2026-04-25 14:21 43.30974 5.29856 36101 ft 448 kts 15°
2026-04-25 14:21 43.37060 5.31364 36094 ft 444 kts 359°
2026-04-25 14:22 43.43081 5.30203 36086 ft 439 kts 340°
2026-04-25 14:22 43.48885 5.27555 36087 ft 439 kts 340°
2026-04-25 14:23 43.54692 5.24913 36089 ft 440 kts 340°
2026-04-25 14:23 43.60510 5.22257 36066 ft 440 kts 340°
2026-04-25 14:24 43.66318 5.19589 36070 ft 440 kts 340°
2026-04-25 14:24 43.72120 5.16922 36082 ft 440 kts 339°
2026-04-25 14:25 43.77939 5.14245 36080 ft 440 kts 340°
2026-04-25 14:25 43.83739 5.11567 36076 ft 439 kts 340°
2026-04-25 14:26 43.89544 5.08884 36077 ft 439 kts 339°
2026-04-25 14:26 43.95340 5.06197 36076 ft 439 kts 339°
2026-04-25 14:27 44.01135 5.03507 36076 ft 439 kts 339°
2026-04-25 14:27 44.06902 5.00826 36075 ft 439 kts 339°
2026-04-25 14:28 44.12700 4.98122 36080 ft 439 kts 339°
2026-04-25 14:28 44.18501 4.95407 36069 ft 439 kts 339°
2026-04-25 14:29 44.24295 4.92698 36070 ft 439 kts 339°
2026-04-25 14:29 44.30090 4.89978 36066 ft 439 kts 339°
2026-04-25 14:30 44.35891 4.87252 36069 ft 440 kts 339°
2026-04-25 14:30 44.44551 4.83170 36071 ft 440 kts 339°
2026-04-25 14:31 44.50346 4.80425 36065 ft 440 kts 339°
2026-04-25 14:31 44.56224 4.77852 36073 ft 441 kts 347°
2026-04-25 14:32 44.62263 4.76495 36073 ft 442 kts 349°
2026-04-25 14:32 44.68344 4.75157 36070 ft 442 kts 349°
2026-04-25 14:33 44.74423 4.73809 36070 ft 442 kts 348°
2026-04-25 14:33 44.80504 4.72446 36072 ft 442 kts 348°
2026-04-25 14:34 44.85555 4.71310 36071 ft 442 kts 349°
2026-04-25 14:34 44.91637 4.69950 36081 ft 442 kts 348°
2026-04-25 14:35 44.97718 4.68600 36086 ft 442 kts 349°
2026-04-25 14:35 45.03797 4.67247 36087 ft 442 kts 348°
2026-04-25 14:36 45.09880 4.65879 36098 ft 442 kts 349°
2026-04-25 14:36 45.15959 4.64510 36099 ft 442 kts 348°
2026-04-25 14:37 45.22040 4.63140 36101 ft 442 kts 349°
2026-04-25 14:37 45.28115 4.61750 36107 ft 442 kts 349°
2026-04-25 14:38 45.34196 4.60355 36114 ft 442 kts 349°
2026-04-25 14:38 45.40271 4.58959 36116 ft 442 kts 349°
2026-04-25 14:39 45.46350 4.57557 36117 ft 442 kts 349°
2026-04-25 14:39 45.52435 4.56153 36122 ft 443 kts 349°
2026-04-25 14:40 45.58515 4.54758 36121 ft 442 kts 349°
2026-04-25 14:40 45.64596 4.53359 36121 ft 443 kts 349°
2026-04-25 14:41 45.70678 4.51946 36123 ft 442 kts 348°
2026-04-25 14:41 45.76757 4.50530 36124 ft 442 kts 348°
2026-04-25 14:42 45.81807 4.49355 36122 ft 442 kts 348°
2026-04-25 14:42 45.88869 4.47707 36131 ft 442 kts 348°
2026-04-25 14:43 45.94945 4.46285 36130 ft 442 kts 348°
2026-04-25 14:43 46.01019 4.44865 36130 ft 442 kts 348°
2026-04-25 14:44 46.07084 4.43441 36129 ft 442 kts 348°
2026-04-25 14:44 46.13146 4.42012 36131 ft 442 kts 348°
2026-04-25 14:45 46.19213 4.40577 36134 ft 441 kts 348°
2026-04-25 14:45 46.25270 4.39134 36124 ft 441 kts 348°
2026-04-25 14:46 46.31337 4.37702 36132 ft 442 kts 348°
2026-04-25 14:46 46.37408 4.36276 36126 ft 442 kts 348°
2026-04-25 14:47 46.42449 4.35085 36121 ft 442 kts 348°
2026-04-25 14:47 46.49539 4.33382 36127 ft 442 kts 348°
2026-04-25 14:48 46.55602 4.31922 36127 ft 442 kts 348°
2026-04-25 14:48 46.61665 4.30475 36126 ft 442 kts 348°
2026-04-25 14:49 46.67740 4.29026 36120 ft 442 kts 348°
2026-04-25 14:49 46.73802 4.27563 36123 ft 442 kts 348°
2026-04-25 14:50 46.79852 4.26021 36123 ft 440 kts 343°
2026-04-25 14:50 46.85581 4.23010 36123 ft 437 kts 336°
2026-04-25 14:51 46.91205 4.19721 36127 ft 438 kts 336°
2026-04-25 14:51 46.96873 4.16411 36020 ft 444 kts 336°
2026-04-25 14:52 46.99774 4.14708 35757 ft 452 kts 336°
2026-04-25 14:52 47.02702 4.12983 35013 ft 455 kts 336°
2026-04-25 14:52 47.05641 4.11252 34411 ft 454 kts 336°
2026-04-25 14:52 47.07574 4.10115 34161 ft 449 kts 336°
2026-04-25 14:53 47.11448 4.07834 33126 ft 451 kts 336°
2026-04-25 14:53 47.14366 4.06117 32440 ft 450 kts 336°
2026-04-25 14:53 47.17255 4.04415 31931 ft 446 kts 336°
2026-04-25 14:53 47.20123 4.02724 31390 ft 442 kts 336°
2026-04-25 14:54 47.22967 4.01044 30861 ft 438 kts 336°
2026-04-25 14:54 47.25787 3.99375 30331 ft 435 kts 336°
2026-04-25 14:54 47.28587 3.97714 29748 ft 432 kts 336°
2026-04-25 14:54 47.31358 3.96071 29226 ft 426 kts 336°
2026-04-25 14:55 47.34093 3.94446 28715 ft 421 kts 336°
2026-04-25 14:55 47.36794 3.92838 28209 ft 417 kts 336°
2026-04-25 14:55 47.39466 3.91248 27746 ft 412 kts 336°
2026-04-25 14:55 47.42106 3.89674 27312 ft 406 kts 336°
2026-04-25 14:56 47.44710 3.88118 26882 ft 401 kts 336°
2026-04-25 14:56 47.47285 3.86575 26448 ft 397 kts 336°
2026-04-25 14:56 47.49837 3.85044 26022 ft 394 kts 336°
2026-04-25 14:56 47.52367 3.83524 25596 ft 392 kts 336°
2026-04-25 14:57 47.54885 3.82012 25182 ft 389 kts 336°
2026-04-25 14:57 47.57381 3.80512 24765 ft 386 kts 336°
2026-04-25 14:57 47.59864 3.79022 24346 ft 384 kts 336°
2026-04-25 14:57 47.62328 3.77541 23932 ft 381 kts 336°
2026-04-25 14:58 47.64782 3.76066 23490 ft 379 kts 336°
2026-04-25 14:58 47.67211 3.74606 23074 ft 375 kts 336°
2026-04-25 14:58 47.69592 3.73175 22677 ft 373 kts 336°
2026-04-25 14:58 47.71990 3.71728 22272 ft 370 kts 336°
2026-04-25 14:59 47.74371 3.70289 21882 ft 368 kts 336°
2026-04-25 14:59 47.76730 3.68860 21484 ft 365 kts 336°
2026-04-25 14:59 47.79072 3.67439 21078 ft 362 kts 336°
2026-04-25 14:59 47.81396 3.66027 20700 ft 360 kts 336°
2026-04-25 15:00 47.83707 3.64626 20313 ft 357 kts 336°
2026-04-25 15:00 47.85999 3.63233 19933 ft 355 kts 336°
2026-04-25 15:00 47.88273 3.61845 19548 ft 352 kts 336°
2026-04-25 15:00 47.90534 3.60459 19180 ft 350 kts 336°
2026-04-25 15:01 47.92783 3.59084 18799 ft 348 kts 336°
2026-04-25 15:01 47.95010 3.57691 18417 ft 345 kts 333°
2026-04-25 15:01 47.97046 3.55840 18001 ft 341 kts 321°
2026-04-25 15:01 47.98771 3.53493 17509 ft 339 kts 313°
2026-04-25 15:02 48.00410 3.50981 17038 ft 337 kts 314°
2026-04-25 15:02 48.02044 3.48480 16562 ft 335 kts 314°
2026-04-25 15:02 48.03672 3.45991 16103 ft 334 kts 314°
2026-04-25 15:02 48.05290 3.43518 15639 ft 332 kts 314°
2026-04-25 15:03 48.06908 3.41046 15162 ft 332 kts 314°
2026-04-25 15:03 48.08518 3.38582 14713 ft 331 kts 314°
2026-04-25 15:03 48.10127 3.36120 14255 ft 331 kts 314°
2026-04-25 15:03 48.11738 3.33658 13773 ft 331 kts 314°
2026-04-25 15:04 48.13345 3.31198 13293 ft 330 kts 314°
2026-04-25 15:04 48.14945 3.28737 12863 ft 327 kts 314°
2026-04-25 15:04 48.16531 3.26293 12457 ft 325 kts 314°
2026-04-25 15:04 48.18077 3.23909 12323 ft 314 kts 314°
2026-04-25 15:05 48.19574 3.21600 12190 ft 304 kts 314°
2026-04-25 15:05 48.21027 3.19359 11983 ft 297 kts 314°
2026-04-25 15:05 48.22464 3.17149 11660 ft 295 kts 314°
2026-04-25 15:06 48.25314 3.12768 11058 ft 291 kts 314°
2026-04-25 15:06 48.26722 3.10596 10747 ft 289 kts 314°
2026-04-25 15:06 48.28122 3.08436 10456 ft 288 kts 314°
2026-04-25 15:06 48.29332 3.06073 10205 ft 285 kts 301°
2026-04-25 15:07 48.30350 3.03517 10139 ft 286 kts 302°
2026-04-25 15:07 48.31383 3.00948 10145 ft 287 kts 302°
2026-04-25 15:07 48.32416 2.98381 10148 ft 287 kts 302°
2026-04-25 15:07 48.33447 2.95807 10146 ft 288 kts 301°
2026-04-25 15:08 48.34466 2.93258 10144 ft 287 kts 302°
2026-04-25 15:08 48.35498 2.90678 10145 ft 288 kts 302°
2026-04-25 15:08 48.36527 2.88101 10145 ft 287 kts 302°
2026-04-25 15:08 48.37556 2.85523 10146 ft 287 kts 301°
2026-04-25 15:09 48.38582 2.82939 10147 ft 288 kts 301°
2026-04-25 15:09 48.39606 2.80352 10148 ft 288 kts 301°
2026-04-25 15:09 48.41652 2.75173 10149 ft 288 kts 301°
2026-04-25 15:10 48.42673 2.72590 10143 ft 287 kts 301°
2026-04-25 15:10 48.43692 2.70006 10146 ft 287 kts 301°
2026-04-25 15:10 48.45625 2.64765 10146 ft 287 kts 292°
2026-04-25 15:11 48.46155 2.61866 10147 ft 288 kts 279°
2026-04-25 15:11 48.46332 2.58852 10142 ft 289 kts 275°
2026-04-25 15:11 48.46474 2.55827 9890 ft 288 kts 275°
2026-04-25 15:12 48.46762 2.49848 9364 ft 285 kts 275°
2026-04-25 15:12 48.46910 2.46873 9104 ft 283 kts 275°
2026-04-25 15:12 48.47054 2.43916 8846 ft 283 kts 275°
2026-04-25 15:12 48.47100 2.42957 8763 ft 283 kts 276°
2026-04-25 15:13 48.47334 2.38025 8340 ft 281 kts 275°
2026-04-25 15:13 48.47609 2.32172 7838 ft 279 kts 275°
2026-04-25 15:13 48.47743 2.29252 7590 ft 279 kts 275°
2026-04-25 15:14 48.47879 2.26340 7343 ft 278 kts 275°
2026-04-25 15:14 48.48015 2.23434 7095 ft 277 kts 275°
2026-04-25 15:14 48.48147 2.20539 6854 ft 277 kts 275°
2026-04-25 15:14 48.48275 2.17650 6612 ft 276 kts 275°
2026-04-25 15:15 48.48316 2.16715 6533 ft 276 kts 275°
2026-04-25 15:15 48.49092 2.12127 6092 ft 271 kts 306°
2026-04-25 15:15 48.49851 2.10639 5931 ft 271 kts 310°
2026-04-25 15:15 48.51471 2.07796 5602 ft 269 kts 312°
2026-04-25 15:16 48.52301 2.06361 5416 ft 268 kts 312°
2026-04-25 15:16 48.53921 2.03579 5093 ft 264 kts 312°
2026-04-25 15:16 48.56014 2.00296 4807 ft 252 kts 328°
2026-04-25 15:17 48.59224 1.99561 4551 ft 233 kts 17°
2026-04-25 15:17 48.60620 2.00680 4425 ft 224 kts 40°
2026-04-25 15:17 48.61579 2.02471 4329 ft 215 kts 61°
2026-04-25 15:18 48.62271 2.04415 4238 ft 206 kts 61°
2026-04-25 15:18 48.63620 2.08175 3780 ft 200 kts 60°
2026-04-25 15:18 48.64269 2.09991 3509 ft 193 kts 60°
2026-04-25 15:19 48.64898 2.11749 3249 ft 187 kts 59°
2026-04-25 15:19 48.65301 2.12879 3097 ft 182 kts 59°
2026-04-25 15:19 48.66098 2.15110 2761 ft 176 kts 60°
2026-04-25 15:19 48.66672 2.16716 2517 ft 172 kts 59°
2026-04-25 15:20 48.66837 2.17194 2452 ft 174 kts 62°
2026-04-25 15:20 48.67412 2.18811 2210 ft 172 kts 59°
2026-04-25 15:20 48.67964 2.20353 2020 ft 162 kts 60°
2026-04-25 15:20 48.68487 2.21818 1794 ft 154 kts 60°
2026-04-25 15:21 48.68982 2.23209 1567 ft 149 kts 61°
2026-04-25 15:21 48.69466 2.24567 1372 ft 146 kts 60°
2026-04-25 15:21 48.69940 2.25902 1205 ft 146 kts 61°
2026-04-25 15:21 48.70424 2.27263 1012 ft 147 kts 61°
2026-04-25 15:22 48.70912 2.28633 829 ft 148 kts 61°
2026-04-25 15:22 48.71400 2.30006 635 ft 148 kts 61°
2026-04-25 15:22 48.71886 2.31374 414 ft 147 kts 61°
2026-04-25 15:22 48.72361 2.32722 298 ft 136 kts 62°
2026-04-25 15:23 48.72740 2.33791 295 ft 91 kts 62°
2026-04-25 15:23 48.72958 2.34407 292 ft 44 kts 67°
2026-04-25 15:23 48.73014 2.34787 288 ft 35 kts 82°
2026-04-25 15:23 48.73038 2.35048 291 ft 12 kts 83°
2026-04-25 15:24 48.73030 2.35184 294 ft 14 kts 109°
2026-04-25 15:24 48.72959 2.35297 295 ft 16 kts 153°
2026-04-25 15:24 48.72902 2.35424 290 ft 16 kts 84°
2026-04-25 15:24 48.72935 2.35515 294 ft 16 kts 24°
2026-04-25 15:25 48.73057 2.35652 292 ft 19 kts 57°
2026-04-25 15:25 48.73129 2.35822 290 ft 14 kts 57°
2026-04-25 15:25 48.73182 2.35946 294 ft 15 kts 57°
2026-04-25 15:25 48.73188 2.36018 290 ft 8 kts 149°
2026-04-25 15:26 48.73148 2.36039 294 ft 1 kts 159°
2026-04-25 15:26 48.73144 2.36042 293 ft 0 kts 159°